Location: downtown San Diego
(32.7310°N, 117.1990°W)
Time: 04:40:45
(UTC-08:00)

Daily predictions for brighter satellites

Satellite Brightness Start Highest point End
(mag) Time Altitude Azimuth Time Altitude Azimuth Time Altitude Azimuth
Haruka 4.3 04:01:56 41° SSE 04:02:43 44° SSE 04:15:19 10° E
Milstar 3 Cent rocket 4.2 04:11:28 28° SSW 04:12:18 28° SSW 04:21:50 10° SE
CZ-4C R/B 3.9 04:20:27 21° NNE 04:20:27 21° NNE 04:22:27 10° NNE
RESURS DK-1 4.5 04:25:05 21° SSE 04:25:05 21° SSE 04:26:29 10° SSE
IDEFIX/ARIANE 42P 4.5 04:18:49 10° NE 04:23:18 29° E 04:27:47 10° SSE
Cosmos 1980 Rocket 2.3 04:24:17 63° S 04:24:17 63° S 04:28:59 10° SSE
Cosmos 2180 Rocket 4.3 04:27:14 73° NW 04:27:50 81° W 04:34:03 10° S
Aurora 2 Rocket 4.3 04:33:31 19° SSE 04:33:31 19° SSE 04:35:22 10° SE
USA 267 4.0 04:28:28 10° NNE 04:33:11 35° NNW 04:33:11 35° NNW
Nadezhda 4 Rocket 3.8 04:40:59 10° SSW 04:47:06 69° W 04:53:12 10° N
Meteor 1-4 Rocket 3.5 04:43:30 10° S 04:46:15 45° SSE 04:46:15 45° SSE
USA 116 4.0 04:46:43 10° SSE 04:51:36 89° W 04:52:42 52° NNW
SeaSat 1 3.3 04:48:15 10° NNE 04:51:13 33° N 04:51:13 33° N
Cosmos 1025 Rocket 4.1 04:50:19 11° N 04:54:14 43° E 04:58:20 10° SSE
Meteor 2-20 Rocket 4.4 04:48:27 10° SSW 04:54:26 58° W 05:00:27 10° N
CZ-2C R/B 3.6 04:50:07 10° NNE 04:54:34 39° E 04:58:53 10° SSE
PAYLOAD A 4.3 04:53:31 10° NNE 04:58:55 71° ESE 05:04:08 10° S
Meteor 2-4 Rocket 3.9 05:01:46 43° WNW 05:02:41 47° W 05:08:04 10° SSW
Cosmos 2285 Rocket 4.1 04:56:57 10° S 05:03:16 80° ESE 05:09:34 10° NNE
OAO 3 Copernicus 4.3 05:02:54 49° WNW 05:04:06 69° N 05:09:08 10° E
Okean 2 3.8 05:01:39 14° N 05:05:07 60° E 05:09:11 10° SSE
USA 234 4.3 04:59:57 10° ESE 05:05:55 39° NE 05:11:04 14° NNW
Cosmos 1536 Rocket 4.3 05:07:44 33° SW 05:07:44 33° SW 05:10:44 10° SSW
SL-16 R/B 2.3 05:02:18 17° NNW 05:06:41 75° ENE 05:12:20 10° SSE
Cosmos 2322 Rocket 2.3 05:06:04 16° NNW 05:10:38 79° ENE 05:16:19 10° SSE
COSMO-SKYMED 1 2.5 05:09:07 10° SSE 05:13:27 90° ESE 05:17:13 14° NNW
EO 1 Del DPAF 3.4 05:09:39 10° SSE 05:13:27 72° ENE 05:16:31 15° N
Cosmos 1500 3.4 05:19:17 10° SSW 05:23:00 47° W 05:26:43 10° N
Landsat 4 4.1 05:22:35 10° S 05:26:09 42° W 05:27:25 31° NW
ATLAS CENTAUR R/B 1.4 05:23:37 10° SSW 05:27:21 68° ESE 05:31:00 10° NNE
NOAA 6 4.3 05:22:50 10° N 05:27:42 44° WNW 05:32:33 10° SW
MTI 4.1 05:25:03 10° S 05:28:05 42° W 05:28:41 37° WNW
Okean 1 Rocket 3.7 05:24:24 10° SW 05:28:21 33° W 05:32:20 10° NNW
Cosmos 389 Rocket 3.3 05:24:55 10° S 05:28:28 55° E 05:32:00 10° NNE
Cosmos 1092 Rocket 4.2 05:24:43 10° SSW 05:30:28 42° W 05:36:17 10° N
Tiangong 1 2.3 05:34:56 10° SSW 05:37:11 31° SE 05:39:30 10° ENE
Okean-O 3.2 05:33:33 10° N 05:37:30 33° WNW 05:41:27 10° SW
MSX 3.8 05:33:27 10° N 05:39:12 83° WNW 05:44:56 10° SSW
Cosmos 1833 4.1 05:33:55 10° SSW 05:39:24 60° WNW 05:44:56 10° NNE
Cosmos 2026 Rocket 4.0 05:35:41 10° SSW 05:41:49 60° W 05:48:06 10° N
Cosmos 1271 Rocket 3.1 05:38:14 10° S 05:41:57 63° E 05:45:40 10° NNE
DMSP B5D1-3 4.5 05:38:24 10° S 05:43:32 73° WSW 05:48:41 10° NNW
Meteor 2-11 Rocket 4.4 05:38:19 10° NNW 05:44:17 61° W 05:50:14 10° S
Cosmos 1680 Rocket 3.9 05:39:31 10° SW 05:44:22 39° WNW 05:49:15 10° N
GEOS 3 Rocket 4.0 05:41:44 10° NE 05:47:08 73° ESE 05:52:25 10° SSW
OAO 3 Rocket 4.5 05:43:09 10° SW 05:47:37 39° SSE 05:52:01 10° E
GPS 2-05 Rocket1 2.8 05:48:09 18° W 05:50:34 65° N 05:53:56 10° ENE
Cosmos 1892 Rocket 3.6 05:48:20 10° N 05:52:43 81° E 05:57:02 10° S
Cosmos 1655 Rocket 4.0 05:46:58 10° SSW 05:53:09 70° W 05:59:26 10° N
Cosmos 1666 2.6 05:51:11 10° S 05:55:00 73° W 05:58:50 10° N
OE (NEXTSAT) 4.4 05:55:24 15° WNW 05:58:14 72° SW 06:01:46 10° SE
Cosmos 1553 Rocket 4.1 05:52:06 10° N 05:58:20 85° E 06:04:26 10° S
IDEFIX/ARIANE 42P 3.4 05:58:25 10° NNW 06:02:46 27° WNW 06:07:07 10° SW
Cosmos 2360 Rocket 2.2 05:59:51 10° NNW 06:05:33 88° WSW 06:11:12 10° SSE
Cosmos 2333 Rocket 4.5 06:02:53 10° NNE 06:07:06 21° ENE 06:11:18 10° ESE
Cosmos 1371 Rocket 4.2 06:02:24 10° NNW 06:07:37 76° ENE 06:12:45 10° SSE
COSMOS 2428 4.0 06:05:07 10° N 06:10:31 41° ENE 06:15:53 10° SE
Cosmos 1066 Rocket 4.4 06:05:42 10° NNW 06:10:51 48° W 06:16:05 10° SSW
Cosmos 2219 Rocket 4.1 06:08:42 10° N 06:13:29 27° ENE 06:18:15 10° ESE
AQUARIUS 4.1 06:09:57 10° N 06:14:27 82° WNW 06:18:57 10° SSW
Thor Agena Rocket 3.5 06:10:04 10° S 06:15:04 72° WSW 06:20:09 10° NNW
Cosmos 1184 Rocket 4.5 06:15:43 10° NW 06:17:55 17° W 06:20:07 10° SW
CZ-4 R/B 1.6 06:14:53 10° NNE 06:19:07 87° ESE 06:23:21 10° SSW
